{"data":{"norad_id":55274,"intl_designator":"2023-010F","name":"STARLINK-5236","alt_names":[],"object_type":"PAYLOAD","status":"ACTIVE","operator":null,"country":"US","launch_date":"2023-01-19","launch_site_code":"AFWTR","launch_vehicle":null,"mission":null,"orbit_class":"UNKNOWN","rcs_meters":null,"size_class":null,"mass_kg":null,"dimensions":null,"purposes":["comms"],"wikipedia_slug":null,"has_3d_model":false,"image_url":null,"decayed_at":null,"tle_current":{"epoch":"2026-05-24T20:27:50.822784Z","epoch_age_seconds":83848,"freshness":"FRESH","line1":"1 55274U 23010F   26144.85267156  .00000061  00000+0  12918-4 0  9997","line2":"2 55274  69.9992 192.5830 0003641 269.1270  90.9472 14.98330262184684","mean_motion":14.98330262,"eccentricity":0.0003641,"inclination_deg":69.9992,"raan_deg":192.583,"arg_perigee_deg":269.127,"mean_anomaly_deg":90.9472,"bstar":1.2918e-5,"rev_number":18468,"period_min":96.106982320297,"perigee_km":569.52451579455,"apogee_km":574.58564566774,"semimajor_km":6950.1920807311,"source":"CELESTRAK","updated_at":"2026-05-25T13:38:17.731549Z"}}}